Погода в Леуши

Погода в Леуши : погода сейчас, прогноз погоды и архив. Всё, что Вы хотите узнать о погоде в Леуши!

Хотите узнать прогноз погоды в Леуши? Тогда Вам сюда: Погода в Леуши

Поиск расширенной информации на нашем сайте:

Другие новости

Новости СМИ2

Главная страница сайта

Новости сайта

03.07.2017

Напоминаем, что на нашем специализированном сайте Метеоцентр.Азия вы можете получить высокодетализированные автоматические прогнозы погоды по пунктам России, СНГ и мира в авиационном формате (включающие направление и скорость ветра, видимость, явления погоды, количество и форму облачности, нижнюю и верхнюю границу облачности).


Погода в Леуши - сегодня

Время (UTC), дата Ветер
(°,м/с) 
Видим.   Явления Облачность Т
(°С)
Тd
(°С)
f(%) Тe
(°С)
Pmin
(гПа)
dP
(гПа)
Po
(мм)
O2
(г/м3)
Тmin Tmax R s Состояние
почвы
12 11.11.18 260 (З) 2{10}  20000 м    10/10 600 м 
[Sc]
-9.3 -13 74 -11  1034.3  -1.4  769  322           
18 11.11.18 260 (З) 20000 м    3/0 верхняя 
[Cs]
-10.3 -13.9 75 -12  1031.4  -1.2  767  322           
21 11.11.18 250 (З) 20000 м    ясно 
-10.9 -13.8 79 -13  1030.2  -1.1  766  323           
00 12.11.18 260 (З) 20000 м    ясно 
-11 -14.4 76 -13  1028.4  -1.8  764  322           
03 12.11.18 260 (З) 20000 м    3/1 600 м верхняя 
[Sc diur, vesp|Cs]
-10.6 -14.1 75 -14  1027.6  -0.8  764  321  -11.1      11  равномерный
сухой снег
100% 
06 12.11.18 290 (З) 20000 м    10/0 средняя, верхняя 
[Ac lent|Cc]
-8 -12.7 69 -12  1027.4  0.1  764  318           
18 12.11.18 300 (СЗ) 5{11}  20000 м    10/10 600 м 
[Sc]
-4.2 -8.1 74 -8  1028  0.5  764  314           
21 12.11.18 290 (З) 20000 м    10/3 600 м средняя, верхняя 
[Sc|Ac cast|Ci fib]
-4.4 -7.8 77 -6  1028.8  0.7  765  314           
00 13.11.18 260 (З) 20000 м    10/10 600 м 
[Sc]
-4.9 -7.7 81 -4  1029.3  0.4  765  315           
03 13.11.18 260 (З) 20000 м    10/9 600 м верхняя 
[Sc|Ci fib]
-3.9 -7 79 -3  1029.1  -0.1  765  313  -5.3      11  равномерный
сухой снег
100% 
06 13.11.18 260 (З) 20000 м    10/10 600 м 
[Sc]
-3 -7.8 69 -4  1028.5  -0.5  765  312           
09 13.11.18 250 (З) 20000 м    10/0 средняя, верхняя 
[Ac As|Cc]
-3.5 -10.4 59 -5  1027  -1.5  763  313           
12 13.11.18 230 (ЮЗ) 20000 м    10/0 средняя 
[Ac As]
-5.8 -11.6 64 -5  1025.9  -1.1  763  315           
18 13.11.18 240 (ЮЗ) 20000 м    ясно 
-8 -14.4 60 -8  1024.8  -0.5  762  317           
21 13.11.18 230 (ЮЗ) 20000 м    ясно 
-9.9 -14.4 70 -10  1024.6  -0.2  762  320           
00 14.11.18 230 (ЮЗ) 20000 м    5/0 верхняя 
[Ci fib]
-10.7 -14.6 73 -11  1023.4  -1.2  761  320           
03 14.11.18 220 (ЮЗ) 20000 м    8/8 600 м 
[Sc]
-9 -13.5 70 -11  1021.3  -2  759  318  -11.2      10  равномерный
сухой снег
100% 
06 14.11.18 220 (ЮЗ) 20000 м    10/10 600 м 
[Sc]
-5.5 -14 51 -7  1018.2  -2.9  757  312           
09 14.11.18 270 (З) 20000 м    10/3 600 м средняя, верхняя 
[Sc|Ac cast|Cc]
-2.5 -13.7 42 -5  1018.5  0.3  757  309           
12 14.11.18 260 (З) 20000 м    10/8 600 м средняя, верхняя 
[Sc|Ac lent|Ci fib]
-2.2 -12.2 46 -4  1019.2  0.7  758  309           
15 14.11.18 270 (З) 3{10}  20000 м    10/3 600 м средняя, верхняя 
[Sc|Ac lent|Cc]
-3.2 -10.8 56 -5  1020.3  1.1  758  310    -2       
18 14.11.18 270 (З) 20000 м    10/10 600 м 
[Sc]
-3.6 -9.2 65 -5  1022  1.6  760  311           
21 14.11.18 250 (З) 20000 м    10/5 600 м средняя, верхняя 
[Sc|Ac lent|Ci fib]
-4.7 -9.6 69 -6  1023.4  1.4  761  313           
00 15.11.18 240 (ЮЗ) 20000 м    3/3 600 м верхняя 
[Sc diur, vesp|Cs]
-5 -8.4 77 -5  1024.3  0.9  761  313           
03 15.11.18 260 (З) 20000 м    10/10 600 м 
[Sc]
-4.4 -6.9 83 -6  1025.7  1.4  762  313  -5.3      10  равномерный
сухой снег
100% 
Время (UTC), дата Ветер
(°,м/с) 
Видим.   Явления Облачность Т
(°С)
Тd
(°С)
f(%) Тe
(°С)
Pmin
(гПа)
dP
(гПа)
Po
(мм)
O2
(г/м3)
Тmin Tmax R s Состояние
почвы

Для получения пояснительной информации подведите курсор к названию столбца.

ПОГОДА в Леуши - архив

Всё, что Вы хотите узнать о погоде в Леуши - удобно и подробно!

Выберите нужную дату (начиная с 1 января 2015* года) и нажмите кнопку "Найти".
Будут отображены архивные сводки погоды по пункту Леуши, начиная с указанной даты.


Отображать данные в формате CSV (для использования в таблицах Excel)


Внимание! Наш архив погоды предназначен исключительно для личного некоммерческого использования в познавательных целях. Если Вам необходимы официальные справки о состоянии погоды (для производственных, юридических, коммерческих и т.п. целей), обращайтесь в органы Росгидромета.

*Примечание: данная дата относится к архиву по метеостанциям СССР (Россия, СНГ, Балтия).
Архив по метеостанциям Зарубежной Европы и Азии (кроме Китая) хранится 10 дней, по другим регионам земного шара (Китай, Африка, Америка, Австралия, Океания) - 1 день.

Леуши - район местоположения метеостанции


Название, широта, долгота, высота метеостанции:
Леуши 59.6°ш. 65.7°д. 72 м над ур. моря [Российская Федерация]

Дополнительная информация

В oтличие oт бoльшинства пoгoдных сайтoв мы публикуем пoдрoбную метеoинфoрмацию в детальнoм прoфессиoнальнoм фoрмате.

Характеристики температуры и влажнoсти вoздуха измеряются на высoте 2 м в тени вдали oт зданий и деревьев.
Скoрoсть ветра измеряется на высoте 10 м (на урoвне рoста челoвека скoрoсть ветра ниже в 1.5-2 раза). Если метеoстанция нахoдится в гoрoде или в лесу, тo скoрoсть ветра занижена на 2-4 м/с пo сравнению с oткрытым местoм. Скoрoсть ветра над акватoриями крупных рек и oзёр, а также на вершинах хoлмoв на 2-5 м/с выше, чем в oбычных услoвиях.
Атмoсфернoе давление в разных тoчках местнoсти мoжет значительнo oтличаться oт давления на метеoстанции, в зависимoсти oт услoвий рельефа (при пoдъёме на 10 м давление пoнижается примернo на 1 мм рт.ст.).